This demonstration page uses our WeatherBlox Daily Observations layout. Learn more.

Left ArrowRight Arrow

Hourly Observations for April 17, 2022

Temp ( °F °C ) Dew Point ( °F °C ) Humidity (%) Winds ( mph kmh ) Pressure ( in mb ) Visibility ( mi km ) Precip ( " mm )
12:15 am 00:15 Cloudy 42 5.6 13 -10.8 30 30 SE 12 19 30.16 1021 10 16 0.00 0.00
12:35 am 00:35 Cloudy 42 5.5 12 -10.9 30 30 SE 12 19 30.15 1021 10 16 0.00 0.00
12:55 am 00:55 Cloudy 42 5.5 12 -11 30 30 ESE 14 22 30.13 1020 10 16 0.00 0.00
1:15 am 01:15 Cloudy 42 5.5 12 -11 30 30 ESE 14 22 30.14 1021 10 16 0.00 0.00
1:35 am 01:35 Cloudy 42 5.3 12 -11 30 30 SE 15 24 30.14 1020 10 16 0.00 0.00
1:55 am 01:55 Cloudy 41 5.2 12 -10.9 30 30 SE 13 20 30.14 1021 10 16 0.00 0.00
2:15 am 02:15 Cloudy 41 5 13 -10.6 32 32 ESE 16 26 30.11 1020 10 16 0.00 0.00
2:35 am 02:35 Cloudy 41 4.9 13 -10.5 32 32 ESE 14 22 30.11 1020 10 16 0.00 0.00
2:55 am 02:55 Cloudy 41 5 13 -10.5 32 32 SE 7 11 30.13 1020 10 16 0.00 0.00
3:15 am 03:15 Cloudy 41 5 13 -10.3 32 32 ESE 9 15 30.12 1020 10 16 0.00 0.00
3:35 am 03:35 Cloudy 41 4.8 14 -10 34 34 SE 18 30 30.07 1018 10 16 0.00 0.00
3:55 am 03:55 Cloudy 41 4.8 14 -10 34 34 SE 14 22 30.06 1018 10 16 0.00 0.00
4:15 am 04:15 Cloudy 41 4.8 14 -10 34 34 SE 9 15 30.10 1019 10 16 0.00 0.00
4:35 am 04:35 Cloudy 40 4.7 14 -10 34 34 ESE 6 9 30.12 1020 10 16 0.00 0.00
4:55 am 04:55 Cloudy 40 4.6 14 -9.8 35 35 ESE 6 9 30.11 1020 10 16 0.00 0.00
5:15 am 05:15 Cloudy 40 4.5 15 -9.7 35 35 ESE 10 17 30.09 1019 10 16 0.00 0.00
5:35 am 05:35 Cloudy 40 4.5 15 -9.5 36 36 ESE 9 15 30.09 1019 10 16 0.00 0.00
5:55 am 05:55 Cloudy 40 4.5 15 -9.5 36 36 ESE 10 17 30.09 1019 10 16 0.00 0.00
6:15 am 06:15 Cloudy 40 4.3 15 -9.5 36 36 ESE 10 17 30.09 1019 10 16 0.00 0.00
6:35 am 06:35 Cloudy 40 4.2 15 -9.5 37 37 ESE 10 17 30.10 1019 10 16 0.00 0.00
6:55 am 06:55 Cloudy 40 4.2 15 -9.3 37 37 SE 7 11 30.11 1019 10 16 0.00 0.00
7:15 am 07:15 Cloudy 39 4 16 -9.1 38 38 E 9 15 30.10 1019 10 16 0.00 0.00
7:35 am 07:35 Cloudy 39 4 16 -9.1 38 38 ESE 9 15 30.11 1020 10 16 0.00 0.00
7:55 am 07:55 Cloudy 39 4 16 -8.9 39 39 ESE 9 15 30.12 1020 10 16 0.00 0.00
8:15 am 08:15 Cloudy 39 4.1 17 -8.6 39 39 ESE 13 20 30.12 1020 10 16 0.00 0.00
8:35 am 08:35 Cloudy 40 4.6 17 -8.6 38 38 ESE 14 22 30.10 1019 10 16 0.00 0.00
8:55 am 08:55 Cloudy 40 4.7 17 -8.6 38 38 SE 14 22 30.11 1020 10 16 0.00 0.00
9:15 am 09:15 Cloudy 41 5.2 17 -8.4 37 37 SE 16 26 30.11 1020 10 16 0.00 0.00
9:35 am 09:35 Mostly Cloudy 42 5.8 17 -8.1 36 36 SE 16 26 30.10 1019 10 16 0.00 0.00
9:55 am 09:55 Partly Cloudy 44 6.4 18 -7.8 36 36 SE 15 24 30.11 1019 10 16 0.00 0.00
10:15 am 10:15 Partly Cloudy 45 7.4 19 -7.2 35 35 SSE 17 28 30.09 1019 10 16 0.00 0.00
10:35 am 10:35 Mostly Cloudy 45 7.4 20 -6.9 36 36 SSE 14 22 30.08 1018 10 16 0.00 0.00
10:55 am 10:55 Partly Cloudy 47 8.5 20 -6.4 35 35 SSE 15 24 30.07 1018 10 16 0.00 0.00
11:15 am 11:15 Sunny 47 8.4 21 -6.1 36 36 SSE 12 19 30.07 1018 10 16 0.00 0.00
11:35 am 11:35 Sunny 49 9.3 22 -5.6 35 35 S 9 15 30.05 1018 10 16 0.00 0.00
11:55 am 11:55 Sunny 50 10 23 -5 35 35 S 12 19 30.04 1017 10 16 0.00 0.00
12:15 pm 12:15 Sunny 51 10.8 24 -4.7 34 34 SSW 10 17 30.04 1017 10 16 0.00 0.00
12:35 pm 12:35 Sunny 53 11.5 25 -4.1 34 34 SSW 12 19 30.03 1017 10 16 0.00 0.00
12:55 pm 12:55 Sunny 54 12.1 25 -4.1 32 32 SW 10 17 30.00 1016 10 16 0.00 0.00
1:15 pm 13:15 Sunny 54 12.4 25 -4.1 32 32 SSW 15 24 30.00 1016 10 16 0.00 0.00
1:35 pm 13:35 Sunny 56 13.4 25 -4 30 30 SSW 13 20 29.99 1016 10 16 0.00 0.00
1:55 pm 13:55 Sunny 57 14 25 -4 29 29 W 6 9 29.97 1015 10 16 0.00 0.00
2:15 pm 14:15 Sunny 58 14.4 25 -3.9 28 28 SW 9 15 29.96 1015 10 16 0.00 0.00
2:35 pm 14:35 Sunny 60 15.3 26 -3.6 27 27 WSW 14 22 29.95 1014 10 16 0.00 0.00
2:55 pm 14:55 Sunny 61 16.1 26 -3.5 26 26 SSW 6 9 29.93 1014 10 16 0.00 0.00
3:15 pm 15:15 Sunny 61 16.2 26 -3.4 26 26 W 9 15 29.93 1014 10 16 0.00 0.00
3:35 pm 15:35 Sunny 63 17.4 26 -3.4 24 24 W 7 11 29.91 1013 10 16 0.00 0.00
3:55 pm 15:55 Sunny 63 17.4 26 -3.5 24 24 NW 7 11 29.91 1013 10 16 0.00 0.00
4:15 pm 16:15 Sunny 64 17.8 26 -3.6 23 23 WNW 8 13 29.90 1012 10 16 0.00 0.00
4:35 pm 16:35 Sunny 65 18.5 25 -3.7 22 22 WNW 13 20 29.89 1012 10 16 0.00 0.00
4:55 pm 16:55 Sunny 65 18.6 25 -4 21 21 WNW 12 19 29.89 1012 10 16 0.00 0.00
5:15 pm 17:15 Sunny 66 19.1 25 -3.7 21 21 NW 8 13 29.88 1012 10 16 0.00 0.00
5:35 pm 17:35 Sunny 66 19.1 25 -3.9 21 21 N 6 9 29.88 1012 10 16 0.00 0.00
5:55 pm 17:55 Partly Cloudy 65 18.5 25 -3.8 22 22 N 8 13 29.89 1012 10 16 0.00 0.00
6:15 pm 18:15 Mostly Cloudy 65 18.3 25 -4 22 22 N 6 9 29.91 1013 10 16 0.00 0.00
6:35 pm 18:35 Cloudy 65 18.2 26 -3.2 23 23 WSW 5 7 29.90 1013 10 16 0.00 0.00
6:55 pm 18:55 Cloudy 64 18 26 -3.2 24 24 NNW 12 19 29.90 1013 10 16 0.00 0.00
7:15 pm 19:15 Cloudy 64 17.7 26 -3.1 24 24 N 18 30 29.93 1013 10 16 0.00 0.00
7:35 pm 19:35 Cloudy 63 17 27 -2.9 26 26 N 15 24 29.94 1014 10 16 0.00 0.00
7:55 pm 19:55 Cloudy 61 16 27 -2.6 28 28 N 24 39 29.96 1015 10 16 0.00 0.00
8:15 pm 20:15 Cloudy 59 15 26 -3.5 28 28 NNE 25 41 29.98 1015 10 16 0.00 0.00
8:35 pm 20:35 Cloudy 57 13.8 25 -3.8 30 30 N 28 44 30.02 1017 10 16 0.00 0.00
8:55 pm 20:55 Cloudy 55 12.6 25 -4.1 31 31 N 20 31 30.05 1018 10 16 0.00 0.00
9:15 pm 21:15 Mostly Cloudy 53 11.6 24 -4.3 33 33 N 24 39 30.07 1018 10 16 0.00 0.00
9:35 pm 21:35 Partly Cloudy 52 11.3 31 -0.5 44 44 NE 28 44 30.10 1019 10 16 0.00 0.00
9:55 pm 21:55 Partly Cloudy 49 9.5 32 -0.2 51 51 NE 22 35 30.14 1021 10 16 0.00 0.00
10:15 pm 22:15 Clear 47 8.3 32 -0.2 55 55 ENE 17 28 30.18 1022 10 16 0.00 0.00
10:35 pm 22:35 Clear 45 7.4 32 -0.2 59 59 ENE 17 28 30.21 1023 10 16 0.00 0.00
10:55 pm 22:55 Clear 44 6.8 31 -0.4 60 60 ENE 15 24 30.22 1023 10 16 0.00 0.00
11:15 pm 23:15 Clear 44 6.5 31 -0.4 62 62 NE 10 17 30.24 1024 10 16 0.00 0.00
11:35 pm 23:35 Clear 43 6 31 -0.5 63 63 NE 9 15 30.26 1025 10 16 0.00 0.00
11:55 pm 23:55 Clear 42 5.6 30 -0.9 63 63 NNE 8 13 30.28 1025 10 16 0.00 0.00

Powered by AerisWeather